Flag for Germany Weather past 2 weeks in Öhringen, Baden-Württemberg, Germany

Now
42 °F

Overcast.


Feels Like: 39 °F
Forecast: 42 / 53 °F
Wind: 6 mph from West

Location: Oehringen

Current Time: Mar 30, 2015 at 12:14:42 PM

Latest Report: Mar 30, 2015 at 12:00 PM


Visibility: 28 mi

Pressure: 29.70 "Hg

Humidity: 85%

Dew point: 38 °F

Location of ÖhringenLocation

Historic Weather in Öhringen — Graph

°F

Öhringen temperature yesterday

Maximum temperature yesterday: 53 °F (at 11:00 PM)
Minimum temperature yesterday: 46 °F (at 12:00 AM)
Average temperature yesterday: 50 °F

Past Weeks' High & Low Weather Summary

 TemperatureHumidityPressure
High67 °F (Mar 17, 3:00 PM)97% (Mar 28, 10:00 PM)30.30 "Hg (Mar 28, 10:00 PM)
Low30 °F (Mar 24, 6:00 AM)30% (Mar 17, 4:00 PM)29.47 "Hg (Mar 30, 12:00 AM)
Average46 °F68%30.03 "Hg
* Reported Mar 15 10:00 AM — Mar 30 11:00 AM, Öhringen, Weather by CustomWeather, © 2015

Note: Actual official high and low records may vary slightly from our data, if they occured in-between our weather recording intervals... More about our weather records

Advertising

Öhringen weather history for previous 24 hours

 ConditionsComfort  
Time TempWeatherWind HumidityBarometerVisibility
11:00 AM
Mon, Mar 30
38 °FRain. Overcast.10 mph87%29.69 "Hg3 mi
10:00 AM44 °FOvercast.6 mph86%29.63 "Hg25 mi
9:00 AM42 °FDrizzle. Overcast.3 mph92%29.62 "Hg14 mi
8:00 AM41 °FLight freezing rain. Overcast.8 mph93%29.60 "Hg5 mi
7:00 AM46 °FOvercast.8 mph88%29.54 "Hg28 mi
6:00 AM45 °FLight rain. Fog.9 mph93%29.54 "Hg3 mi
4:00 AM43 °FLight rain. Overcast.6 mph95%29.56 "Hg2 mi
3:00 AM44 °FRain. Overcast.8 mph93%29.57 "Hg1 mi
2:00 AM49 °FDrizzle. Overcast.10 mph88%29.50 "Hg28 mi
1:00 AM51 °FLight rain. Overcast.13 mph85%29.50 "Hg11 mi
12:00 AM51 °FLight rain. Overcast.14 mph83%29.47 "Hg3 mi
11:00 PM
Sun, Mar 29
53 °FOvercast.13 mph74%29.50 "Hg43 mi
10:00 PM52 °FLight freezing rain. Overcast.10 mph81%29.50 "Hg31 mi
9:00 PM52 °FLight rain. Overcast.12 mph79%29.55 "Hg7 mi
8:00 PM51 °FLight rain. Overcast.8 mph81%29.58 "Hg12 mi
7:00 PM52 °FLight rain. Overcast.8 mph77%29.59 "Hg6 mi
6:00 PM53 °FOvercast.10 mph73%29.62 "Hg43 mi
5:00 PM52 °FOvercast.9 mph72%29.65 "Hg43 mi
4:00 PM50 °FLight rain. Overcast.9 mph80%29.70 "Hg13 mi
3:00 PM50 °FLight rain. Overcast.8 mph84%29.74 "Hg11 mi
2:00 PM49 °FLight rain. Overcast.9 mph87%29.77 "Hg5 mi
1:00 PM50 °FLight rain. Overcast.8 mph79%29.78 "Hg17 mi
12:00 PM51 °FLight rain. Overcast.9 mph82%29.80 "Hg17 mi
Weather by CustomWeather, © 2015

See weather overviewHow to use our weather pages